User: anonymous   Login
Location: Coleman
(45.0650°N, 88.0340°W)
Time: 02:10:18
(UTC-06:00)
Language:

Iridium 97 - Orbit

View from above orbital plane
View from above orbital plane
View from above satellite
View from above satellite

Ground track
Ground track

The orbit data is extracted from the following two-line orbital elements,

1 27450U 02031A   16338.30119617  .00000201  00000-0  64845-4 0  9997
2 27450  86.3980  40.7932 0002274  99.0293 261.1160 14.34219089762155
Epoch (UTC): 03 December 2016 07:13:43
Eccentricity: 0.0002274
inclination: 86.3980°
perigee height: 776 km
apogee height: 779 km
right ascension of ascending node: 40.7932°
argument of perigee: 99.0293°
revolutions per day: 14.34219089
mean anomaly at epoch: 261.1160°
orbit number at epoch: 76215

The dashed part of the orbit path shows where the satellite is in the earth's shadow,  

DLR